Regional Weather Roundup
Issued by NWS

Home | Current Version | Previous Version | Text Only | Print | Product List | Glossary Off
Versions: 1 2 3 4 5 6 7 8 9 10 11 12 13 14 15 16 17 18 19 20 21 22 23 24 25 26 27 28 29 30 31 32 33 34 35 36 37 38 39 40 41 42 43 44 45 46 47 48 49 50

000
ASUS43 KLSX 260259
RWRMO

WEATHER SUMMARY FOR MISSOURI
NATIONAL WEATHER SERVICE SPRINGFIELD MO
1000 PM CDT FRI JUL 25 2014

NOTE: "FAIR" INDICATES FEW OR NO CLOUDS BELOW 12,000 FEET WITH NO
       SIGNIFICANT WEATHER AND/OR OBSTRUCTIONS TO VISIBILITY.
       CURRENT SKY AND/OR WEATHER CONDITIONS ARE NOT AVAILABLE FOR
       CHILLICOTHE AND FARMINGTON.

MOZ001>031-035>038-043-044-053-054-260400-
...NORTHERN AND WESTERN MISSOURI...

CITY           SKY/WX    TMP DP  RH WIND       PRES   REMARKS
KANSAS CTY INT PTCLDY    86  74  67 SW20      29.79R HX  94
KANSAS C DTWN  PTCLDY    88  74  63 SW14G22   29.78R HX  96
LEE`S SUMMIT   CLEAR     85  74  69 S13G22    29.81R HX  92
ST JOSEPH      CLEAR     83  73  72 S6        29.75R
CHILLICOTHE      N/A     85  74  69 S9        29.78R HX  92
KIRKSVILLE     CLEAR     73  68  84 S7        29.84R

$$
MOZ066>068-077>081-088>096-101>105-260400-
...SOUTHWEST MISSOURI...

CITY           SKY/WX    TMP DP  RH WIND       PRES   REMARKS
SPRINGFIELD    CLEAR     78  69  73 S8        29.91R
JOPLIN         CLEAR     82  70  66 S13       29.90S

$$
MOZ032>034-039>042-045>050-055>058-069>072-260400-
...CENTRAL MISSOURI...

CITY           SKY/WX    TMP DP  RH WIND       PRES   REMARKS
COLUMBIA       CLEAR     80  71  74 S8        29.86R
JEFFERSON CITY CLEAR     83  70  64 S5        29.85R
ROLLA          CLEAR     77  67  71 S16       29.88S
SEDALIA        CLEAR     83  69  62 S8        29.85R
OSAGE BEACH    CLEAR     81  70  69 S10       29.87R

$$
MOZ051-052-059>065-260400-
...EAST CENTRAL MISSOURI...

CITY           SKY/WX    TMP DP  RH WIND       PRES   REMARKS
ST LOUIS INTL  PTCLDY    78  64  61 S8        29.92R
SPIRIT OF STL  CLEAR     76  65  68 SE3       29.90R
ST CHARLES     CLEAR     68  65  90 E7        29.90R

$$
MOZ072>076-082>087-097>100-106>115-260400-
...SOUTH CENTRAL AND SOUTHEAST MISSOURI...

CITY           SKY/WX    TMP DP  RH WIND       PRES   REMARKS
CAPE GIRARDEAU PTCLDY    71  64  78 S6        29.95R
FARMINGTON     CLEAR     72  63  73 S12       29.96S
POPLAR BLUFF   CLEAR     71  64  78 SW3       29.95R
WEST PLAINS    PTCLDY    75  68  78 S5        29.97S

$$



USA.gov is the U.S. government's official web portal to all federal, state and local government web resources and services.